When you browse on this site, cookies collect data to enhance your experience and personalize the content and advertising you see.
Visit our Privacy Policy to learn more. By continuing to use the site, you agree to this use of cookies and data.

Hourly Weather Qala i Naw

Today, 18 September, Friday

Time Temperature Precipitation Wind Pressure Humidity
00:00 +13°C° 0 mm 1 mps 684 mmHg 63%
01:00 +12°C° 0 mm 1 mps 684 mmHg 66%
02:00 +12°C° 0 mm 1 mps 683 mmHg 70%
03:00 +11°C° 0 mm 1 mps 683 mmHg 73%
04:00 +9°C° 0 mm 0 mps 682 mmHg 78%
05:00 +11°C° 0 mm 0 mps 683 mmHg 69%
06:00 +12°C° 0 mm 0 mps 684 mmHg 61%
07:00 +14°C° 0 mm 0 mps 684 mmHg 52%
08:00 +17°C° 0 mm 2 mps 684 mmHg 47%
09:00 +19°C° 0 mm 3 mps 684 mmHg 41%
10:00 +21°C° 0 mm 4 mps 685 mmHg 35%
11:00 +22°C° 0 mm 5 mps 684 mmHg 32%
12:00 +23°C° 0 mm 6 mps 684 mmHg 30%
13:00 +26°C° 0 mm 7 mps 684 mmHg 27%
14:00 +24°C° 0 mm 6 mps 684 mmHg 25%
15:00 +24°C° 0 mm 6 mps 683 mmHg 23%
16:00 +23°C° 0 mm 6 mps 683 mmHg 23%
17:00 +21°C° 0 mm 5 mps 683 mmHg 25%
18:00 +18°C° 0 mm 4 mps 683 mmHg 26%
19:00 +14°C° 0 mm 3 mps 683 mmHg 28%
20:00 +14°C° 0 mm 2 mps 683 mmHg 31%
21:00 +13°C° 0 mm 2 mps 682 mmHg 33%
22:00 +12°C° 0 mm 2 mps 682 mmHg 35%
23:00 +11°C° 0 mm 1 mps 681 mmHg 39%

Tomorrow, 19 September, Saturday

Time Temperature Precipitation Wind Pressure Humidity
00:00 +10°C° 0 mm 1 mps 681 mmHg 44%
01:00 +8°C° 0 mm 0 mps 680 mmHg 48%
02:00 +8°C° 0 mm 0 mps 680 mmHg 49%
03:00 +8°C° 0 mm 0 mps 679 mmHg 51%
04:00 +7°C° 0 mm 0 mps 679 mmHg 52%
05:00 +9°C° 0 mm 0 mps 680 mmHg 44%
06:00 +12°C° 0 mm 0 mps 680 mmHg 37%
07:00 +14°C° 0 mm 0 mps 681 mmHg 29%
08:00 +18°C° 0 mm 1 mps 681 mmHg 26%
09:00 +20°C° 0 mm 2 mps 681 mmHg 23%
10:00 +23°C° 0 mm 2 mps 681 mmHg 19%
11:00 +25°C° 0 mm 3 mps 680 mmHg 17%
12:00 +26°C° 0 mm 3 mps 680 mmHg 15%
13:00 +28°C° 0 mm 4 mps 680 mmHg 13%
14:00 +28°C° 0 mm 3 mps 679 mmHg 12%
15:00 +28°C° 0 mm 3 mps 679 mmHg 11%
16:00 +28°C° 0 mm 3 mps 679 mmHg 10%
17:00 +24°C° 0 mm 3 mps 678 mmHg 16%
18:00 +20°C° 0 mm 2 mps 678 mmHg 22%
19:00 +16°C° 0 mm 2 mps 678 mmHg 28%
20:00 +15°C° 0 mm 1 mps 677 mmHg 30%
21:00 +14°C° 0 mm 1 mps 677 mmHg 31%
22:00 +14°C° 0 mm 1 mps 677 mmHg 33%
23:00 +13°C° 0 mm 1 mps 677 mmHg 39%

Day after tomorrow, 20 September, Sunday

Time Temperature Precipitation Wind Pressure Humidity
00:00 +12°C° 0 mm 1 mps 677 mmHg 45%
01:00 +11°C° 0 mm 0 mps 676 mmHg 50%
02:00 +10°C° 0 mm 0 mps 676 mmHg 51%
03:00 +10°C° 0 mm 0 mps 676 mmHg 51%
04:00 +10°C° 0 mm 0 mps 676 mmHg 52%
05:00 +13°C° 0 mm 0 mps 678 mmHg 39%
06:00 +16°C° 0 mm 0 mps 679 mmHg 26%
07:00 +19°C° 0 mm 0 mps 680 mmHg 13%
08:00 +24°C° 0 mm 1 mps 681 mmHg 11%
09:00 +26°C° 0 mm 2 mps 681 mmHg 9%
10:00 +29°C° 0 mm 2 mps 682 mmHg 7%
11:00 +30°C° 0 mm 3 mps 682 mmHg 6%
12:00 +32°C° 0 mm 5 mps 682 mmHg 5%
13:00 +32°C° 0 mm 6 mps 682 mmHg 4%
14:00 +32°C° 0 mm 6 mps 681 mmHg 4%
15:00 +32°C° 0 mm 5 mps 681 mmHg 4%
16:00 +30°C° 0 mm 5 mps 681 mmHg 4%
17:00 +26°C° 0 mm 4 mps 681 mmHg 9%
18:00 +22°C° 0 mm 3 mps 681 mmHg 13%
19:00 +18°C° 0 mm 2 mps 680 mmHg 18%
20:00 +17°C° 0 mm 2 mps 680 mmHg 19%
21:00 +16°C° 0 mm 2 mps 680 mmHg 20%
22:00 +15°C° 0 mm 1 mps 681 mmHg 21%
23:00 +14°C° 0 mm 1 mps 680 mmHg 24%

21 September, Monday

Time Temperature Precipitation Wind Pressure Humidity
00:00 +13°C° 0 mm 1 mps 680 mmHg 27%
01:00 +13°C° 0 mm 1 mps 680 mmHg 29%
02:00 +12°C° 0 mm 1 mps 680 mmHg 33%
03:00 +11°C° 0 mm 1 mps 680 mmHg 36%
04:00 +11°C° 0 mm 1 mps 680 mmHg 40%
05:00 +13°C° 0 mm 1 mps 681 mmHg 34%
06:00 +16°C° 0 mm 1 mps 681 mmHg 29%
07:00 +19°C° 0 mm 1 mps 682 mmHg 23%
08:00 +20°C° 0 mm 2 mps 682 mmHg 20%
09:00 +23°C° 0 mm 2 mps 682 mmHg 18%
10:00 +25°C° 0 mm 3 mps 683 mmHg 15%
11:00 +26°C° 0 mm 4 mps 682 mmHg 14%
12:00 +27°C° 0 mm 5 mps 682 mmHg 13%
13:00 +28°C° 0 mm 6 mps 682 mmHg 13%
14:00 +29°C° 0 mm 6 mps 682 mmHg 12%
15:00 +29°C° 0 mm 7 mps 682 mmHg 11%
16:00 +29°C° 0 mm 7 mps 682 mmHg 11%
17:00 +27°C° 0 mm 6 mps 683 mmHg 16%
18:00 +23°C° 0 mm 5 mps 683 mmHg 21%
19:00 +20°C° 0 mm 5 mps 683 mmHg 26%
20:00 +18°C° 0 mm 4 mps 683 mmHg 31%
21:00 +17°C° 0 mm 3 mps 683 mmHg 36%
22:00 +15°C° 0 mm 2 mps 683 mmHg 41%
23:00 +14°C° 0 mm 2 mps 682 mmHg 43%

22 September, Tuesday

Time Temperature Precipitation Wind Pressure Humidity
00:00 +13°C° 0 mm 1 mps 682 mmHg 46%
01:00 +12°C° 0 mm 1 mps 682 mmHg 48%
02:00 +12°C° 0 mm 1 mps 681 mmHg 50%
03:00 +11°C° 0 mm 1 mps 681 mmHg 51%
04:00 +10°C° 0 mm 0 mps 681 mmHg 53%
05:00 +12°C° 0 mm 0 mps 681 mmHg 46%
06:00 +15°C° 0 mm 1 mps 682 mmHg 39%
07:00 +18°C° 0 mm 1 mps 683 mmHg 31%
08:00 +20°C° 0 mm 1 mps 683 mmHg 28%
09:00 +20°C° 0 mm 2 mps 683 mmHg 25%
10:00 +22°C° 0 mm 3 mps 683 mmHg 22%
11:00 +25°C° 0 mm 4 mps 682 mmHg 22%
12:00 +26°C° 0 mm 5 mps 682 mmHg 21%
13:00 +28°C° 0 mm 6 mps 682 mmHg 20%
14:00 +28°C° 0 mm 7 mps 682 mmHg 21%
15:00 +27°C° 0 mm 7 mps 682 mmHg 22%
16:00 +27°C° 0 mm 7 mps 682 mmHg 23%
17:00 +24°C° 0 mm 6 mps 682 mmHg 29%
18:00 +21°C° 0 mm 5 mps 681 mmHg 34%
19:00 +19°C° 0 mm 3 mps 681 mmHg 39%
20:00 +17°C° 0 mm 3 mps 681 mmHg 42%
21:00 +16°C° 0 mm 2 mps 681 mmHg 46%
22:00 +15°C° 0 mm 2 mps 681 mmHg 49%
23:00 +14°C° 0 mm 1 mps 681 mmHg 51%

23 September, Wednesday

Time Temperature Precipitation Wind Pressure Humidity
00:00 +13°C° 0 mm 1 mps 680 mmHg 54%
01:00 +12°C° 0 mm 1 mps 680 mmHg 56%
02:00 +12°C° 0 mm 1 mps 680 mmHg 57%
03:00 +11°C° 0 mm 1 mps 680 mmHg 58%
04:00 +10°C° 0 mm 0 mps 680 mmHg 59%
05:00 +12°C° 0 mm 0 mps 681 mmHg 52%
06:00 +14°C° 0 mm 0 mps 682 mmHg 45%
07:00 +15°C° 0 mm 0 mps 682 mmHg 37%
08:00 +18°C° 0 mm 2 mps 682 mmHg 32%
09:00 +20°C° 0 mm 3 mps 683 mmHg 28%
10:00 +21°C° 0 mm 4 mps 683 mmHg 23%
11:00 +23°C° 0 mm 5 mps 683 mmHg 20%
12:00 +24°C° 0 mm 6 mps 682 mmHg 18%
13:00 +26°C° 0 mm 7 mps 682 mmHg 15%
14:00 +24°C° 0 mm 7 mps 682 mmHg 16%
15:00 +24°C° 0 mm 8 mps 682 mmHg 17%
16:00 +23°C° 0 mm 8 mps 682 mmHg 19%
17:00 +21°C° 0 mm 7 mps 682 mmHg 19%
18:00 +17°C° 0 mm 5 mps 682 mmHg 20%
19:00 +16°C° 0 mm 3 mps 682 mmHg 20%
20:00 +13°C° 0 mm 3 mps 682 mmHg 20%
21:00 +13°C° 0 mm 2 mps 682 mmHg 21%
22:00 +12°C° 0 mm 2 mps 682 mmHg 21%
23:00 +11°C° 0 mm 1 mps 682 mmHg 22%
Show more